Regional Weather Roundup
Issued by NWS

Home | Current Version | Previous Version | Text Only | Print | Product List | Glossary On
Versions: 1 2 3 4 5 6 7 8 9 10 11 12 13 14 15 16 17 18 19 20 21 22 23 24 25 26 27 28 29 30 31 32 33 34 35 36 37 38 39 40 41 42 43 44 45 46 47 48 49 50
000
ASUS44 KOUN 171510
RWROK

WEATHER ROUNDUP FOR OKLAHOMA
NATIONAL WEATHER SERVICE NORMAN OK
1000 AM CDT THU APR 17 2014

NOTE: "FAIR" INDICATES FEW OR NO CLOUDS BELOW 12,000 FEET WITH NO
      SIGNIFICANT WEATHER AND/OR OBSTRUCTIONS TO VISIBILITY.

OKZ001>007-009>012-014-015-017-171600-
NORTHWEST OKLAHOMA AND THE PANHANDLE

CITY           SKY/WX    TMP DP  RH WIND       PRES   REMARKS
GAGE           CLOUDY    44  31  60 NE14      30.23R
ENID/VANCE AFB PTSUNNY   45  37  76 NE16G23   30.21R
ENID/WOODRING  CLOUDY    46  34  61 NE17      30.23R
$$

OKZ016-021>023-033>039-044-045-171600-
SOUTHWEST OKLAHOMA

CITY           SKY/WX    TMP DP  RH WIND       PRES   REMARKS
LAWTON/REGL    CLOUDY    56  47  71 E8        30.15R
LAWTON/FT SILL CLOUDY    55  47  74 E5        30.14R
FREDERICK      PTSUNNY   55  46  71 NE9       30.10R
CLINTON        CLOUDY    50  37  61 NE16      30.19R
HOBART         CLOUDY    53  43  68 E13       30.16R
ALTUS AFB      CLOUDY    55  46  72 E8        30.14R
$$

OKZ018>020-024>031-171600-
CENTRAL OKLAHOMA

CITY           SKY/WX    TMP DP  RH WIND       PRES   REMARKS
OKLAHOMA CITY  CLOUDY    55  40  56 SE6       30.18S
OKC/WILEY POST CLOUDY    55  36  48 E5        30.19S
OKC/TINKER AFB CLOUDY    53  40  61 SE6       30.18S
STILLWATER     CLOUDY    52  38  58 N10       30.21R
GUTHRIE        CLOUDY    53  37  54 N3        30.20R
$$

OKZ008-013-054>072-171600-
NORTHEAST OKLAHOMA

CITY           SKY/WX    TMP DP  RH WIND       PRES   REMARKS
TULSA          CLOUDY    54  41  61 N7        30.22R
TULSA/JONES    CLOUDY    56  36  47 CALM      30.23R
PONCA CITY     CLOUDY    47  32  56 NE16      30.24R
BARTLESVILLE   CLOUDY    49  35  58 N13       30.27R
MUSKOGEE       MOSUNNY   57  38  48 SE8       30.23R
$$

OKZ032-040>043-046>053-073>077-171600-
SOUTH CENTRAL/SOUTHEAST OKLAHOMA

CITY           SKY/WX    TMP DP  RH WIND       PRES   REMARKS
ARDMORE/DWNTWN   N/A     54  46  76 S6        30.17S
MCALESTER      MOSUNNY   58  42  55 CALM      30.21R
$$




USA.gov is the U.S. government's official web portal to all federal, state and local government web resources and services.